This is the latest recevied weather packets stored in our database for station/object HS5BOG-13. If no packets are shown the sender has not sent any weather packets the latest 10 day(s).
| Time | Temp. | Humidity | Pressure | Rain* | Wind** | Luminosity | Snow |
|---|---|---|---|---|---|---|---|
| 1778115938 | 29.44° C | 90% | 992.4 hPa | - | - | - | - |
| 1778115332 | 29.44° C | 90% | 992.3 hPa | - | - | - | - |
| 1778114727 | 29.44° C | 88% | 992.4 hPa | - | - | - | - |
| 1778114121 | 29.44° C | 88% | 992.3 hPa | - | - | - | - |
| 1778113516 | 29.44° C | 86% | 992 hPa | - | - | - | - |
| 1778112910 | 29.44° C | 86% | 991.9 hPa | - | - | - | - |
| 1778112305 | 29.44° C | 84% | 991.9 hPa | - | - | - | - |
| 1778111699 | 29.44° C | 83% | 991.8 hPa | - | - | - | - |
| 1778111093 | 29.44° C | 84% | 991.7 hPa | - | - | - | - |
| 1778110488 | 29.44° C | 80% | 991.6 hPa | - | - | - | - |
| 1778109882 | 29.44° C | 79% | 991.5 hPa | - | - | - | - |
| 1778109277 | 29.44° C | 76% | 991.5 hPa | - | - | - | - |
| 1778108671 | 29.44° C | 79% | 991.4 hPa | - | - | - | - |
| 1778108066 | 29.44° C | 75% | 991.5 hPa | - | - | - | - |
| 1778107460 | 29.44° C | 74% | 991.5 hPa | - | - | - | - |
| 1778106854 | 29.44° C | 73% | 991.5 hPa | - | - | - | - |
| 1778106249 | 29.44° C | 72% | 991.4 hPa | - | - | - | - |
| 1778105643 | 30° C | 71% | 991.4 hPa | - | - | - | - |
| 1778105038 | 30° C | 71% | 991.3 hPa | - | - | - | - |
| 1778104170 | 30° C | 72% | 991.3 hPa | - | - | - | - |
| 1778103564 | 30° C | 73% | 991.2 hPa | - | - | - | - |
| 1778102958 | 30° C | 73% | 991 hPa | - | - | - | - |
| 1778102232 | 30° C | 74% | 990.9 hPa | - | - | - | - |
| 1778101627 | 30° C | 75% | 991 hPa | - | - | - | - |
| 1778101021 | 30° C | 74% | 990.7 hPa | - | - | - | - |
* Rain since midnight (hover to see other rain measurements)
** Current wind speed in m/s (hover to see current wind gust speed)